Regional Weather Roundup
Issued by NWS

Home | Current Version | Previous Version | Graphics & Text | Print | Product List | Glossary On
Versions: 1 2 3 4 5 6 7 8 9 10 11 12 13 14 15 16 17 18 19 20 21 22 23 24 25 26 27 28 29 30 31 32 33 34 35 36 37 38 39 40 41 42 43 44 45 46 47 48 49 50
000
ASUS45 KBOU 250607
RWRCO

WEATHER ROUNDUP FOR COLORADO
NATIONAL WEATHER SERVICE DENVER/BOULDER CO
1200 AM MDT FRI JUL 25 2014

NOTE: "FAIR" INDICATES FEW OR NO CLOUDS BELOW 12000 FEET WITH NO
SIGNIFICANT WEATHER AND/OR OBSTRUCTIONS TO VISIBILITY.

COZ001>005-013-030-031-250700-
...NORTHWEST COLORADO...

CITY           SKY/WX    TMP DP  RH WIND       PRES   REMARKS
CRAIG          CLEAR     59  50  72 VRB3      30.20R
HAYDEN         CLEAR     64  45  48 E12       30.23R
MEEKER         PTCLDY    63  52  67 E3        30.23S
MOUNT WERNER   NOT AVBL
STEAMBOAT SPGS MOCLDY    66  49  54 CALM      30.26S
WALDEN         PTCLDY    54  45  71 SE7       30.35R
$$

COZ006>008-011-250700-
...WEST CENTRAL VALLEYS...

CITY           SKY/WX    TMP DP  RH WIND       PRES   REMARKS
GRAND JUNCTION MOCLDY    77  51  40 SE22G31   30.10R
MONTROSE       CLOUDY    72  52  49 E8        30.24S
EAGLE          CLOUDY    61  55  82 NE7       30.34S
RIFLE          MOCLDY    73  49  42 E10       30.18S
DELTA          CLOUDY    74  52  47 NE7       30.19S
NUCLA          CLOUDY    70  50  49 E8        30.28S
$$

COZ017>023-064>068-250700-
...SOUTHWEST COLORADO...

CITY           SKY/WX    TMP DP  RH WIND       PRES   REMARKS
DURANGO        CLOUDY    69  52  54 NE9       30.29S
CORTEZ         PTCLDY    73  53  49 E7        30.24F
PAGOSA SPRINGS CLOUDY    71  44  36 NW13G21   30.38S
TELLURIDE      CLOUDY    55  54  94 NE3       30.54R
WOLF CREEK PAS NOT AVBL
$$

COZ009-010-012-014-032>034-037-058>063-250700-
...CENTRAL COLORADO...

CITY           SKY/WX    TMP DP  RH WIND       PRES   REMARKS
ASPEN          MOCLDY    58  50  75 S7        30.39R
BUENA VISTA    MOCLDY    58  51  77 E3        30.37F
COPPER MTN     MOCLDY    54  43  66 W28G33    30.71R
BERTHOUD PASS  MOCLDY    45  32  61 W25G36    30.71S
COTTONWOOD PAS MOCLDY    61  41  48 NW9G23    30.51S
GUNNISON       CLOUDY    57  48  72 N6        30.43S
KREMMLING      MOCLDY    63  43  48 SW6       30.34R
LEADVILLE      MOCLDY    52  41  66 NE10      30.53R
MONARCH PASS   MOCLDY    48  39  71 W30       30.77F
SALIDA         MOCLDY   N/A N/A N/A CALM      30.41R
SUNLIGHT       CLOUDY    54  46  76 SE5       30.61F
WILKERSON PASS CLOUDY    52  41  66 W9        30.64R
$$

COZ069>075-250700-
...SAN LUIS VALLEY/SANGRE DE CRISTO MOUNTAINS...

CITY           SKY/WX    TMP DP  RH WIND       PRES   REMARKS
ALAMOSA        MOCLDY    61  51  70 S8        30.36R
LA VETA PASS   PTCLDY    57  41  54 SW8       30.54S
SAGUACHE       MOCLDY    61  52  72 NW13      30.39S
$$

COZ035-036-038>040-250700-
...NORTHERN COLORADO FRONT RANGE...

CITY           SKY/WX    TMP DP  RH WIND       PRES   REMARKS
DENVER INTL AP PTCLDY    72  51  47 S15       30.08F
DMNS CITY PARK   N/A     72  52  49 S5G12     30.07F
AURORA         MOCLDY    69  52  54 SW8       30.11F
FRONT RANGE AP NOT AVBL
ERIE MUNI ARPT PTCLDY    73  52  46 S7        30.05F
BOULDER MUN AP PTCLDY    73  50  43 CALM      30.06S
CENTENNIAL     MOCLDY    69  51  52 S7        30.12F
BROOMFIELD     PTCLDY    72  52  49 SW7       30.11R
FORT COLLINS   MOCLDY    72  54  53 S8        30.05S
LONGMONT       MOCLDY    74  53  47 CALM      30.06S
$$

COZ041-046-047-076>085-087-088-250700-
...PIKES PEAK/PALMER DIVIDE AND SOUTHERN FOOTHILLS...

CITY           SKY/WX    TMP DP  RH WIND       PRES   REMARKS
COLO. SPRINGS  MOCLDY    71  51  49 N8        30.15F
A. F. ACADEMY  MOCLDY    69  51  52 NW9       30.19F
ELLICOTT       MOCLDY    68  53  58 N6        30.13F
FALCON         MOCLDY    66  51  57 NW8       30.22S
FORT CARSON    CLOUDY    70  54  58 W7        30.12F
LIMON          MOCLDY    68  57  68 W7        30.06F
MONUMENT HILL  MOCLDY    61  52  72 SW8       30.22F
TRINIDAD       MOCLDY    75  46  35 S5        30.17R
$$

COZ042>045-048>051-090-091-250700-
...NORTHEAST COLORADO...

CITY           SKY/WX    TMP DP  RH WIND       PRES   REMARKS
GREELEY ARPT   MOCLDY    72  54  53 SW7       30.03F
AKRON          PTCLDY    71  53  52 SW7       30.00F
BURLINGTON     CLOUDY    79  51  37 N5        29.98F
WRAY             N/A     71  56  60 W8        29.91F
STERLING       PTCLDY    70  61  73 SW3       29.94F
HOLYOKE        PTCLDY    72  59  64 SW9       29.92F
FORT MORGAN    PTCLDY    70  53  54 W8        30.00F
$$

COZ086-089-092>099-250700-
...SOUTHEAST COLORADO...

CITY           SKY/WX    TMP DP  RH WIND       PRES   REMARKS
PUEBLO         MOCLDY    79  52  38 NW9       30.05R
LA JUNTA       MOCLDY    80  51  36 N8        29.98R
LAMAR          CLOUDY    86  45  23 SW13      29.92R
SPRINGFIELD      N/A     77  52  41 S16       30.04S
$$



USA.gov is the U.S. government's official web portal to all federal, state and local government web resources and services.